User: anonymous   Login
Location: NJAA Observatory
(40.6819°N, 74.8979°W)
Time: 02:50:08
(UTC-04:00)
Language:

Cosmos 1939 Rocket - Orbit

View from above orbital plane
View from above orbital plane
View from above satellite
View from above satellite

Ground track
Ground track

The orbit data is extracted from the following two-line orbital elements,

1 19046U 88032B   18142.61627250 -.00000534 +00000-0 -35217-4 0  9992
2 19046 097.4798 183.8075 0036063 260.7714 098.9431 15.02412436623310
Epoch (UTC): 22 May 2018 14:47:25
Eccentricity: 0.0036063
inclination: 97.4798°
perigee height: 534 km
apogee height: 584 km
right ascension of ascending node: 183.8075°
argument of perigee: 260.7714°
revolutions per day: 15.02412436
mean anomaly at epoch: 98.9431°
orbit number at epoch: 62331

The dashed part of the orbit path shows where the satellite is in the earth's shadow,  

DLR